Location: Gleizolles
(44.4833°N, 6.7667°E)
Time: 16:35:13
(UTC+00:00)

GEOS 3 Rocket - Pass Details

Date: 09 April 2020
Orbit: 774 x 845 km, 115.0° (Epoch: 05 June)

Event Time Altitude Azimuth Distance (km) Brightness Sun altitude
Exits shadow 19:27:22 - 162° (SSE) 2,500 5.8 -13.7°
Reaches altitude 10° 19:27:46 10° 164° (SSE) 2,346 5.6 -13.8°
Maximum altitude 19:32:40 48° 238° (WSW) 1,040 4.4 -14.6°
Drops below altitude 10° 19:37:42 10° 312° (NW) 2,404 7.3 -15.4°
Sets 19:40:07 0° 318° (NW) 3,351 8.2 -15.7°
